Vorticity
nan nan nan nan nan nan nan nan nan nan nan nan nan nan nan nan nan nan nan nan nan nan nan nan nan nan nan nan nan nan nan nan nan nan nan nan nan nan nan nan nan nan nan nan nan nan nan nan nan nan nan nan nan nan nan nan nan nan nan nan nan nan nan nan nan nan nan nan nan
nan 13 14 15 16 16 12 8 8 10 12 12 10 10 11 11 9 8 8 9 10 10 10 7 4 4 4 8 12 11 10 9 9 9 7 6 10 15 21 23 25 32 36 37 36 32 25 18 13 8 7 9 11 13 14 16 18 17 15 10 9 13 18 20 21 21 20 15 nan
nan 11 11 12 15 17 15 9 7 9 13 13 11 11 12 11 10 8 7 7 9 11 12 8 4 3 6 10 12 11 9 9 10 12 10 5 5 9 13 11 9 13 19 25 31 34 33 32 28 18 9 5 6 7 9 11 15 18 21 20 15 14 14 19 22 18 14 12 nan
nan 11 9 7 12 17 18 12 8 10 13 12 10 11 12 11 10 9 7 6 8 10 10 10 9 6 6 7 9 11 10 9 12 12 11 8 7 9 12 13 11 10 10 11 14 20 25 36 38 29 20 10 8 7 6 5 4 6 12 18 16 15 14 16 18 16 14 15 nan
nan 11 10 6 8 14 14 10 10 13 13 12 12 12 12 11 10 9 9 8 7 7 7 12 14 10 7 6 8 11 10 9 11 12 9 8 8 8 9 12 15 14 11 10 12 15 19 30 34 28 27 27 26 22 17 12 7 2 0 4 8 10 10 9 11 13 15 18 nan
nan 10 11 9 9 13 12 8 8 12 13 11 11 13 15 13 10 10 11 10 6 5 6 10 13 11 9 9 10 11 10 9 10 10 10 9 9 7 8 10 13 15 13 10 12 16 19 26 23 16 17 23 22 20 25 37 41 30 18 5 2 4 6 4 3 5 8 9 nan
nan 8 9 9 10 12 12 11 10 11 11 8 6 11 14 14 12 12 13 12 8 6 7 6 7 10 11 11 11 10 9 10 9 8 10 10 9 9 9 9 10 12 12 12 13 15 18 20 17 10 9 11 6 0 10 31 47 50 46 35 22 14 7 0 -3 -1 1 0 nan
nan 7 8 8 8 9 10 12 13 12 11 8 4 6 9 12 12 12 12 11 9 9 9 5 3 8 12 13 11 9 8 9 10 9 9 8 8 10 10 8 9 10 11 12 12 14 18 17 13 10 10 10 5 -1 -0 10 25 35 40 41 38 35 32 31 27 23 20 17 nan
nan 6 7 7 8 8 9 10 11 12 11 8 6 6 8 9 10 11 11 9 8 9 9 5 3 7 9 11 11 10 9 7 7 8 8 7 8 10 11 8 8 11 11 9 8 11 18 18 12 11 12 10 7 5 4 10 17 20 22 18 18 25 33 38 40 47 51 53 nan
nan 8 8 7 6 9 9 9 8 9 9 7 6 7 6 8 11 12 12 9 7 8 9 6 5 6 7 8 10 10 11 9 6 5 7 8 8 10 12 10 8 11 12 12 9 9 13 14 10 12 14 10 6 6 8 11 13 15 19 11 4 6 11 14 17 26 35 44 nan
nan 9 10 7 6 9 10 10 8 7 7 7 6 7 6 6 9 11 11 10 7 6 8 8 7 8 9 8 7 8 10 10 8 6 5 7 8 9 11 11 9 11 12 14 14 12 11 9 6 9 14 14 8 6 6 9 10 12 15 14 7 7 8 12 13 11 8 10 nan
nan 8 8 8 8 9 10 10 8 6 6 8 8 9 8 6 6 8 9 9 9 8 7 7 8 9 11 9 7 8 8 8 8 8 5 5 7 9 9 9 9 10 11 14 16 15 10 7 6 7 11 16 13 6 3 7 10 9 9 12 11 10 8 11 15 15 8 4 nan
nan 7 7 7 8 9 10 11 9 6 6 8 10 10 8 5 5 7 8 9 11 11 8 7 8 9 10 9 9 9 8 7 7 8 7 5 6 7 8 8 8 9 11 11 12 13 11 7 7 8 10 14 15 9 6 8 10 9 8 9 10 9 7 9 12 13 10 10 nan
nan 8 7 7 7 8 8 10 9 6 6 8 11 11 9 6 6 8 9 9 11 11 11 10 10 9 7 8 9 9 10 9 7 8 8 7 7 7 8 7 8 10 11 10 8 9 11 9 8 9 9 10 12 10 9 10 10 9 8 8 8 8 8 8 9 9 8 9 nan
nan 10 10 9 9 9 8 9 9 6 6 8 10 11 12 9 7 9 10 11 12 12 11 12 11 9 7 8 9 9 9 9 8 8 7 6 7 8 9 8 8 10 11 11 9 7 7 8 8 8 8 8 9 9 9 9 9 9 9 9 8 8 8 9 10 9 7 8 nan
nan 12 12 11 11 11 10 10 9 6 6 6 8 10 11 9 7 7 9 13 14 11 9 11 13 11 8 8 9 9 8 8 8 8 7 6 6 6 8 8 8 9 9 10 10 9 8 8 7 6 7 8 8 8 8 8 7 7 9 9 9 8 8 9 10 9 8 7 nan
nan 12 12 12 12 12 13 13 11 8 6 6 7 9 10 9 7 5 6 10 12 9 9 12 14 11 9 9 9 9 8 7 7 8 7 6 5 6 6 8 9 9 9 9 9 9 9 9 8 6 6 7 8 8 8 9 8 6 7 8 8 8 8 9 10 9 7 6 nan
nan 10 10 11 12 13 13 14 13 10 8 7 7 8 8 8 7 6 4 5 7 7 8 12 13 11 10 10 10 9 7 6 6 8 8 7 6 6 6 6 8 9 9 9 9 9 9 9 9 9 7 6 7 8 8 9 8 7 7 7 7 7 7 8 9 10 7 6 nan
nan 9 9 9 10 11 12 13 14 13 11 10 9 8 8 7 8 8 6 4 5 6 7 8 10 11 11 12 11 10 9 5 4 7 8 9 8 7 6 7 8 9 10 10 10 10 10 9 9 9 9 7 7 8 8 9 9 8 8 8 8 7 7 7 9 9 8 6 nan
nan 8 9 9 9 9 10 11 13 13 13 12 10 11 10 10 9 9 8 7 7 7 6 5 6 8 9 11 12 11 12 8 4 7 8 9 8 7 6 6 7 9 9 10 11 11 11 10 10 10 9 8 7 7 8 8 7 7 9 8 7 8 8 8 8 9 9 8 nan
nan 7 8 8 9 9 10 10 10 11 11 11 11 12 12 11 11 10 10 10 10 9 8 6 5 6 8 9 11 12 12 10 7 9 9 9 8 8 7 6 6 8 8 8 10 10 11 11 10 11 11 10 8 7 8 7 5 6 8 8 7 7 8 9 10 10 10 9 nan
nan 8 7 6 7 9 10 10 9 8 9 10 10 11 11 11 11 10 11 11 11 11 10 8 6 6 7 9 10 11 11 10 9 10 10 10 9 9 9 7 6 8 8 9 10 11 11 10 9 10 13 13 10 8 8 9 8 7 6 7 7 8 8 8 9 10 10 11 nan
nan 10 9 6 5 7 9 10 8 8 8 8 9 10 10 10 10 10 11 12 11 11 12 10 7 6 7 9 10 11 11 10 9 10 10 11 11 10 11 9 7 7 9 10 12 14 15 12 8 9 10 12 11 9 7 10 12 11 8 8 9 9 8 7 6 8 10 13 nan
nan 11 11 7 5 7 8 8 8 7 8 8 9 9 10 10 10 10 9 10 11 11 13 12 7 6 6 8 9 10 10 10 10 9 9 10 12 12 12 10 7 7 7 5 8 17 25 22 14 10 9 9 10 8 7 8 11 11 10 11 12 12 9 7 6 7 7 12 nan
nan 10 10 9 7 8 8 8 8 8 8 8 8 8 9 9 9 9 9 9 10 10 11 12 11 8 7 6 7 9 9 9 9 9 8 8 10 12 13 11 8 6 3 -3 -1 13 24 30 28 22 15 9 8 7 6 5 7 9 9 10 12 12 10 9 9 9 8 10 nan
nan 9 9 9 9 8 8 9 9 9 9 8 8 8 9 9 8 8 8 8 9 9 10 11 10 8 8 7 6 8 10 9 8 8 8 7 7 10 14 13 9 6 -2 -5 -1 7 12 19 28 31 27 16 9 8 7 4 4 6 6 6 8 9 9 8 8 10 11 11 nan
nan 9 9 9 8 8 9 10 9 9 9 9 9 9 10 10 9 7 8 8 9 10 10 9 8 7 8 7 5 7 9 10 9 9 8 6 5 8 12 12 9 4 -5 -4 3 7 8 9 16 25 31 25 13 10 8 6 5 7 7 5 5 6 7 7 7 8 10 12 nan
nan 9 9 9 9 9 9 9 9 9 10 10 9 10 10 9 9 9 10 10 11 11 10 9 9 8 7 5 3 5 7 10 11 10 9 6 5 7 9 10 5 -1 -5 -1 6 7 7 8 10 16 25 30 21 11 8 8 8 9 8 6 6 7 7 7 6 7 7 10 nan
nan 9 9 9 9 9 8 8 9 9 10 10 9 9 10 9 9 9 10 11 12 12 12 10 9 9 7 4 4 5 6 8 10 10 9 7 6 6 7 8 2 -5 -8 1 9 7 7 8 8 11 17 28 28 16 9 8 8 8 8 7 7 7 8 7 7 7 8 8 nan
nan 9 9 9 9 9 8 8 9 9 11 10 8 9 9 9 8 9 9 11 12 12 11 10 9 9 8 7 6 6 6 6 8 8 9 8 7 6 6 7 3 -5 -10 -1 8 8 8 8 9 10 13 22 28 21 13 9 9 9 8 6 5 7 9 8 6 8 9 8 nan
nan 9 9 9 9 9 9 9 9 10 10 9 9 9 9 9 9 10 10 12 12 10 8 9 10 10 10 9 8 7 7 7 7 7 7 8 8 8 6 5 2 -5 -9 -1 8 8 8 9 10 11 12 20 26 21 14 10 10 10 8 6 5 7 9 9 6 6 7 8 nan
nan 9 9 9 9 9 9 9 9 9 9 9 10 10 9 10 11 10 9 10 10 10 9 9 9 10 11 10 9 8 7 7 7 7 7 9 10 9 6 5 1 -5 -8 -1 7 8 9 10 11 11 12 20 25 19 14 11 11 9 7 6 6 7 9 10 8 5 6 8 nan
nan 9 9 10 10 9 9 9 10 9 10 10 10 10 10 11 11 9 9 10 11 11 10 9 8 10 11 12 11 9 9 8 7 6 7 9 11 11 9 7 0 -9 -8 0 6 8 9 11 12 13 13 22 25 18 13 12 11 9 7 6 6 6 7 9 9 7 6 8 nan
nan 9 9 10 10 10 10 10 10 10 10 10 10 10 11 11 11 10 10 11 12 12 10 9 9 10 12 13 11 9 9 9 9 8 8 9 10 12 11 10 -1 -13 -7 2 6 8 10 12 14 15 17 24 25 16 11 11 11 8 7 7 7 7 7 7 7 7 7 8 nan
nan 10 10 11 11 11 10 10 10 10 10 10 10 11 12 12 11 10 10 11 12 12 10 9 9 11 13 14 11 9 8 10 11 11 10 10 11 11 11 9 -1 -12 -6 3 6 8 10 13 15 17 22 26 23 14 10 10 9 7 7 8 7 7 7 8 8 7 7 8 nan
nan 9 10 11 11 11 10 10 11 10 9 10 11 12 12 12 11 10 9 11 12 11 10 10 9 11 14 15 12 9 7 8 10 11 12 12 12 11 10 8 -1 -10 -6 2 6 7 9 12 16 20 26 27 21 13 10 10 8 7 7 8 8 7 8 8 8 8 8 7 nan
nan 9 10 11 11 11 10 10 10 9 9 11 12 11 11 12 12 11 9 12 12 10 10 11 9 10 12 13 11 9 7 8 10 10 12 14 14 13 10 8 2 -6 -8 -2 6 7 8 11 17 23 29 26 19 15 12 11 9 8 8 9 10 10 10 9 8 8 8 6 nan
nan 9 10 11 11 11 10 9 9 9 9 12 13 11 11 12 11 10 9 12 13 10 10 10 9 9 10 11 9 8 8 10 11 12 12 13 14 13 12 9 6 -1 -9 -5 4 6 7 8 14 23 31 27 17 15 14 11 10 11 11 12 13 12 12 11 10 9 7 2 nan
nan 10 10 11 11 10 9 9 9 9 11 12 12 11 11 12 10 9 9 12 13 10 10 9 9 9 10 11 11 9 8 9 11 13 14 12 10 11 14 13 7 1 -8 -7 2 5 6 6 11 19 30 29 18 14 12 10 9 10 12 13 14 13 13 13 13 12 10 2 nan
nan 10 11 12 12 10 9 9 10 11 11 11 11 11 11 11 11 10 11 12 12 12 11 9 9 10 10 12 13 10 10 10 11 12 13 11 6 7 14 15 8 2 -7 -8 -0 4 6 6 8 16 30 30 18 13 10 8 6 7 9 11 12 12 12 13 14 14 13 10 nan
nan nan nan nan nan nan nan nan nan nan nan nan nan nan nan nan nan nan nan nan nan nan nan nan nan nan nan nan nan nan nan nan nan nan nan nan nan nan nan nan nan nan nan nan nan nan nan nan nan nan nan nan nan nan nan nan nan nan nan nan nan nan nan nan nan nan nan nan nan
CAPE
3 5 5 9 13 13 14 14 15 15 16 15 15 16 16 19 16 15 15 14 14 15 15 13 12 12 12 11 7 7 5 4 4 3 3 5 7 8 8 12 12 14 14 0 0 0 0 4 11 11 57 97 154 122 122 52 40 28 28 11 1 2 2 2 5 5 10 14 13
2 4 4 9 11 11 10 10 11 11 10 12 12 16 16 18 18 16 16 14 15 14 14 12 12 9 9 9 7 7 6 4 3 2 2 1 1 2 2 3 5 8 8 10 7 7 10 5 7 7 65 122 89 165 165 158 80 31 31 11 7 19 19 14 14 14 18 22 19
2 3 3 3 5 5 9 10 9 9 8 8 11 14 14 15 15 13 13 12 11 12 12 10 10 7 7 9 9 9 8 5 5 4 4 2 1 1 1 1 1 2 2 3 6 6 9 9 13 13 17 101 95 78 78 86 78 137 137 66 51 44 44 24 29 29 35 17 11
2 2 2 3 4 4 7 10 8 8 7 7 8 9 9 12 11 9 9 9 7 9 9 9 9 9 9 10 8 8 8 6 5 5 5 4 4 3 3 2 1 1 1 1 1 1 2 4 9 9 7 14 63 146 146 79 37 115 115 98 103 111 111 86 93 93 37 16 12
2 3 3 3 4 4 6 7 7 7 6 7 7 8 8 7 7 8 8 8 6 6 6 6 7 9 9 7 7 7 7 6 7 4 4 3 3 3 3 2 2 2 2 1 0 0 0 1 10 10 24 32 14 32 32 35 19 18 18 58 75 111 111 90 72 72 64 27 34
4 3 3 4 4 4 5 7 6 6 6 6 5 5 5 5 5 6 6 6 4 4 4 6 7 8 8 6 6 6 6 6 6 4 4 2 3 2 2 2 2 2 2 1 1 1 1 2 8 8 13 23 33 23 23 11 10 12 12 14 17 73 73 45 46 46 25 50 71
3 3 3 3 3 3 4 5 6 6 5 4 4 3 3 2 2 2 2 3 2 2 2 4 5 5 5 5 5 5 6 6 5 3 3 3 2 2 2 2 1 2 2 1 2 2 2 2 4 4 5 8 12 5 5 8 16 16 16 23 16 52 52 71 35 35 25 60 76
2 2 2 2 2 2 2 2 2 2 2 1 1 1 1 1 0 nan nan nan 0 0 0 1 1 2 2 4 4 4 5 5 5 4 4 3 2 3 3 2 2 2 2 2 3 3 2 3 2 2 3 3 3 0 0 0 2 6 6 9 30 17 17 3 13 13 27 4 52
0 1 1 1 2 2 2 1 0 0 0 nan nan nan nan nan nan nan nan nan nan 0 0 nan 0 1 1 2 3 3 4 4 5 3 3 4 3 3 3 3 3 3 3 3 3 3 2 4 4 4 4 5 4 2 2 1 1 2 2 6 16 22 22 28 15 15 6 7 43
0 0 0 0 1 1 1 0 nan nan nan nan nan nan nan 0 nan nan nan nan nan nan nan nan nan 0 0 1 2 2 4 4 4 4 4 4 5 4 4 4 4 4 4 3 4 4 4 5 5 5 5 6 4 3 3 3 1 1 1 2 2 1 1 2 2 2 7 11 11
nan 0 0 0 1 1 2 0 0 0 nan nan nan nan nan nan nan nan nan nan nan nan nan nan nan nan nan 0 1 1 2 4 4 4 4 5 6 5 5 5 6 5 5 4 5 5 5 5 4 4 4 4 3 4 4 4 2 2 2 2 1 0 0 0 1 1 2 4 6
nan nan nan 1 1 1 1 1 0 0 nan nan nan nan nan nan nan nan nan nan nan nan nan nan nan nan nan nan nan nan 1 2 5 5 5 5 5 5 5 6 6 6 6 6 6 6 6 5 5 5 5 5 4 4 4 4 3 4 4 3 2 1 1 1 2 2 1 1 1
nan nan nan nan 0 0 0 1 0 0 nan nan nan nan nan nan nan nan nan nan nan nan nan nan nan nan nan nan nan nan nan nan 2 5 5 5 5 6 6 6 6 7 7 7 6 6 6 5 5 5 6 5 5 6 6 6 5 4 4 4 4 2 2 2 2 2 4 1 0
nan nan nan nan nan nan nan nan nan nan nan nan nan nan nan nan nan nan nan nan nan nan nan nan nan nan nan nan nan nan nan nan nan 2 2 5 5 6 6 6 7 8 8 9 6 6 5 4 5 5 5 5 5 6 6 7 8 7 7 6 5 4 4 4 4 4 4 3 1
nan nan nan nan nan nan nan nan nan nan nan nan nan nan nan nan nan nan nan nan nan nan nan nan nan nan nan nan nan nan nan nan nan nan nan 3 6 6 6 7 8 11 11 12 10 10 7 5 5 5 4 5 5 6 6 8 9 9 9 9 8 7 7 5 5 5 5 3 2
nan nan nan nan nan nan nan nan nan nan nan nan nan nan nan nan nan nan nan nan nan nan nan nan nan nan nan nan nan nan nan nan nan nan nan 0 4 4 4 6 8 11 11 12 11 11 10 7 5 5 4 4 4 6 6 7 9 9 9 10 11 9 9 8 7 7 7 5 2
nan nan nan nan nan nan nan nan nan nan nan nan nan nan nan nan nan nan nan nan nan nan nan nan nan nan nan nan nan nan nan nan nan nan nan nan 1 3 3 4 6 10 10 11 13 13 12 10 8 8 6 5 4 5 5 7 9 10 10 12 12 13 13 12 10 10 8 7 5
nan nan nan nan nan nan nan nan nan nan nan nan nan nan nan nan nan nan nan nan nan nan nan nan nan nan nan nan nan nan nan nan nan nan nan nan 0 0 0 0 1 3 3 5 7 7 8 9 8 8 9 7 6 6 6 6 10 11 11 12 13 16 16 16 16 16 15 13 11
nan nan nan nan nan nan nan nan nan nan nan nan nan nan nan nan nan nan nan nan nan nan nan nan nan nan nan nan nan nan nan nan nan nan nan nan 0 0 0 0 0 2 2 3 4 4 5 5 6 6 7 7 5 6 6 7 9 9 9 9 12 16 16 16 17 17 17 15 11
nan nan nan nan nan nan nan nan nan nan nan nan nan nan nan nan nan nan nan nan nan nan nan nan nan nan nan nan nan nan nan nan nan nan nan nan nan 1 1 0 0 2 2 3 4 4 3 3 2 2 2 5 6 6 6 7 9 9 9 8 11 13 13 15 14 14 15 15 14
nan nan nan nan nan nan nan nan nan nan nan nan nan nan nan nan nan nan nan nan nan nan nan nan nan nan nan nan nan nan nan nan nan nan nan nan nan nan nan 0 0 1 1 1 1 1 2 1 0 0 nan 2 4 5 5 6 8 9 9 8 7 13 13 14 14 14 15 16 15
nan nan nan nan nan nan nan nan nan nan nan nan nan nan nan nan nan nan nan nan nan nan nan nan nan nan nan nan nan nan nan nan nan nan nan nan nan nan nan nan nan 0 0 0 1 1 1 0 nan nan nan nan 2 4 4 5 6 6 6 5 6 9 9 14 13 13 12 14 16
nan nan nan nan nan nan nan nan nan nan nan nan nan nan nan nan nan nan nan nan nan nan nan nan nan nan nan nan nan nan nan nan nan nan nan nan nan nan nan nan nan 0 0 0 1 1 0 nan nan nan nan nan nan 0 0 0 1 2 2 2 3 7 7 9 13 13 11 10 13
nan nan nan nan nan nan nan nan nan nan nan nan nan nan nan nan nan nan nan nan nan nan nan nan nan nan nan nan nan nan nan nan nan nan nan nan nan nan nan nan nan 0 0 1 6 6 6 1 nan nan nan nan nan nan nan nan nan nan nan nan 0 2 2 3 4 4 4 4 9
nan nan nan nan nan nan nan nan nan nan nan nan nan nan nan nan nan nan nan nan nan nan nan nan nan nan nan nan nan nan nan nan nan nan nan nan nan nan nan nan nan 1 1 4 21 21 21 12 1 1 nan nan nan nan nan nan nan nan nan nan nan nan nan nan nan nan nan nan 1
nan nan nan nan nan nan nan nan nan nan nan nan nan nan nan nan nan nan nan nan nan nan nan nan nan nan nan nan nan nan nan nan nan nan nan nan nan nan nan nan nan 0 0 10 18 18 18 16 10 10 nan nan nan nan nan nan nan nan nan nan nan nan nan nan nan nan nan nan nan
nan nan nan nan nan nan nan nan nan nan nan nan nan nan nan nan nan nan nan nan nan nan nan nan nan nan nan nan nan nan nan nan nan nan nan nan nan nan nan nan nan 1 1 16 20 20 18 15 10 10 2 nan nan nan nan nan nan nan nan nan nan nan nan nan nan nan nan nan nan
nan nan nan nan nan nan nan nan nan nan nan nan nan nan nan nan nan nan nan nan nan nan nan nan nan nan nan nan nan nan nan nan nan nan nan nan nan nan nan nan nan 9 9 25 25 25 22 16 10 10 5 nan nan nan nan nan nan nan nan nan nan nan nan nan nan nan nan nan nan
nan nan nan nan nan nan nan nan nan nan nan nan nan nan nan nan nan nan nan nan nan nan nan nan nan nan nan nan nan nan nan nan nan nan nan nan nan nan nan nan nan 13 13 32 30 30 28 21 12 12 7 1 nan nan nan nan nan nan nan nan nan nan nan nan nan nan nan nan nan
nan nan nan nan nan nan nan nan nan nan nan nan nan nan nan nan nan nan nan nan nan nan nan nan nan nan nan nan nan nan nan nan nan nan nan nan nan nan nan nan nan 11 11 36 36 36 33 25 16 16 8 2 nan nan nan nan nan nan nan nan nan nan nan nan nan nan nan nan nan
nan nan nan nan nan nan nan nan nan nan nan nan nan nan nan nan nan nan nan nan nan nan nan nan nan nan nan nan nan nan nan nan nan nan nan nan nan nan nan nan nan 11 11 34 38 38 37 31 21 21 10 3 nan nan nan nan nan nan nan nan nan nan nan nan nan nan nan nan nan
nan nan nan nan nan nan nan nan nan nan nan nan nan nan nan nan nan nan nan nan nan nan nan nan nan nan nan nan nan nan nan nan nan nan nan nan nan nan nan nan nan 13 13 34 38 38 40 35 23 23 10 3 nan nan nan nan nan nan nan nan nan nan nan nan nan nan nan nan nan
nan nan nan nan nan nan nan nan nan nan nan nan nan nan nan nan nan nan nan nan nan nan nan nan nan nan nan nan nan nan nan nan nan nan nan nan nan nan nan nan nan 18 18 36 40 40 46 42 26 26 12 4 nan nan nan nan nan nan nan nan nan nan nan nan nan nan nan nan nan
nan nan nan nan nan nan nan nan nan nan nan nan nan nan nan nan nan nan nan nan nan nan nan nan nan nan nan nan nan nan nan nan nan nan nan nan nan nan nan nan nan 23 23 38 43 43 50 47 31 31 14 7 nan nan nan nan nan nan nan nan nan nan nan nan nan nan nan nan nan
nan nan nan nan nan nan nan nan nan nan nan nan nan nan nan nan nan nan nan nan nan nan nan nan nan nan nan nan nan nan nan nan nan nan nan nan nan nan nan nan nan 21 21 39 47 47 55 53 37 37 18 6 nan nan nan nan nan nan nan nan nan nan nan nan nan nan nan nan nan
nan nan nan nan nan nan nan nan nan nan nan nan nan nan nan nan nan nan nan nan nan nan nan nan nan nan nan nan nan nan nan nan nan nan nan nan nan nan nan nan nan 16 16 41 52 52 57 58 44 44 24 nan nan nan nan nan nan nan nan nan nan nan nan nan nan nan nan nan nan
nan nan nan nan nan nan nan nan nan nan nan nan nan nan nan nan nan nan nan nan nan nan nan nan nan nan nan nan nan nan nan nan nan nan nan nan nan nan nan nan nan 4 4 39 50 50 56 57 51 51 29 nan nan nan nan nan nan nan nan nan nan nan nan nan nan nan nan nan nan
nan nan nan nan nan nan nan nan nan nan nan nan nan nan nan nan nan nan nan nan nan nan nan nan nan nan nan nan nan nan nan nan nan nan nan nan nan nan nan nan nan nan nan 29 44 44 49 49 51 51 29 2 nan nan nan nan nan nan nan nan nan nan nan nan nan nan nan nan nan
nan nan nan nan nan nan nan nan nan nan nan nan nan nan nan nan nan nan nan nan nan nan nan nan nan nan nan nan nan nan nan nan nan nan nan nan nan nan nan nan nan nan nan 18 32 32 36 38 40 40 29 2 nan nan nan nan nan nan nan nan nan nan nan nan nan nan nan nan 20
nan nan nan nan nan nan nan nan nan nan nan nan nan nan nan nan nan nan nan nan nan nan nan nan nan nan nan nan nan nan nan nan nan nan nan nan nan nan nan nan nan nan nan 10 24 24 28 32 32 32 27 1 nan nan nan nan nan nan nan nan nan nan nan 0 nan nan nan nan 30
nan nan nan nan nan nan nan nan nan nan nan nan nan nan nan nan nan nan nan nan nan nan nan nan nan nan nan nan nan nan nan nan nan nan nan nan nan nan nan nan nan nan nan 1 18 18 25 26 27 27 25 1 nan nan nan nan nan nan nan nan 0 0 0 nan nan nan nan nan nan